• In Latvia
  • List of Countries
  • For 7 days
  • Water Temperature
  • Satellite Maps
  • Weather Map
  • Weather Widgets
  • user-avatar
    Login

    Hourly Weather Sankt Polten

    Today, 16 July, Monday

    Time Temperature Precipitation Wind Pressure Humidity
    00:00 +18°C° 0 mm 1 mps 735 mmHg 82%
    01:00 +18°C° 0 mm 1 mps 735 mmHg 81%
    02:00 +16°C° 0 mm 1 mps 735 mmHg 81%
    03:00 +16°C° 0 mm 1 mps 735 mmHg 82%
    04:00 +16°C° 0 mm 1 mps 735 mmHg 82%
    05:00 +19°C° 0 mm 1 mps 735 mmHg 78%
    06:00 +20°C° 0 mm 1 mps 735 mmHg 75%
    07:00 +22°C° 0 mm 1 mps 735 mmHg 72%
    08:00 +23°C° 0.3 mm 1 mps 735 mmHg 68%
    09:00 +25°C° 0.3 mm 1 mps 735 mmHg 64%
    10:00 +26°C° 0.3 mm 1 mps 734 mmHg 60%
    11:00 +28°C° 0.5 mm 1 mps 734 mmHg 54%
    12:00 +28°C° 0.5 mm 1 mps 734 mmHg 52%
    13:00 +29°C° 0.5 mm 1 mps 734 mmHg 50%
    14:00 +29°C° 0.2 mm 1 mps 733 mmHg 50%
    15:00 +28°C° 0.2 mm 1 mps 733 mmHg 50%
    16:00 +28°C° 0.2 mm 1 mps 733 mmHg 50%
    17:00 +26°C° 0.5 mm 1 mps 733 mmHg 60%
    18:00 +24°C° 0.5 mm 1 mps 732 mmHg 69%
    19:00 +23°C° 0.5 mm 1 mps 732 mmHg 79%
    20:00 +21°C° 0.3 mm 1 mps 732 mmHg 81%
    21:00 +20°C° 0.3 mm 1 mps 732 mmHg 84%
    22:00 +19°C° 0.3 mm 1 mps 732 mmHg 86%
    23:00 +17°C° 0 mm 2 mps 732 mmHg 87%

    Tomorrow, 17 July, Tuesday

    Time Temperature Precipitation Wind Pressure Humidity
    00:00 +17°C° 0 mm 2 mps 732 mmHg 88%
    01:00 +16°C° 0 mm 2 mps 732 mmHg 89%
    02:00 +16°C° 0 mm 2 mps 732 mmHg 90%
    03:00 +16°C° 0 mm 2 mps 732 mmHg 91%
    04:00 +16°C° 0 mm 2 mps 733 mmHg 92%
    05:00 +17°C° 0 mm 2 mps 733 mmHg 88%
    06:00 +18°C° 0 mm 3 mps 733 mmHg 84%
    07:00 +20°C° 0 mm 3 mps 733 mmHg 80%
    08:00 +21°C° 0.2 mm 4 mps 733 mmHg 75%
    09:00 +22°C° 0.2 mm 4 mps 733 mmHg 71%
    10:00 +25°C° 0.2 mm 4 mps 733 mmHg 66%
    11:00 +25°C° 0.4 mm 5 mps 733 mmHg 64%
    12:00 +25°C° 0.4 mm 5 mps 733 mmHg 62%
    13:00 +26°C° 0.4 mm 5 mps 733 mmHg 61%
    14:00 +26°C° 0.3 mm 5 mps 733 mmHg 61%
    15:00 +26°C° 0.3 mm 5 mps 733 mmHg 62%
    16:00 +26°C° 0.3 mm 5 mps 733 mmHg 62%
    17:00 +25°C° 0.3 mm 4 mps 733 mmHg 68%
    18:00 +22°C° 0.3 mm 4 mps 733 mmHg 73%
    19:00 +21°C° 0.3 mm 3 mps 733 mmHg 79%
    20:00 +20°C° 0.1 mm 3 mps 733 mmHg 81%
    21:00 +19°C° 0.1 mm 3 mps 734 mmHg 84%
    22:00 +18°C° 0.1 mm 3 mps 734 mmHg 87%
    23:00 +18°C° 0.1 mm 3 mps 734 mmHg 87%

    Day after tomorrow, 18 July, Wednesday

    Time Temperature Precipitation Wind Pressure Humidity
    00:00 +17°C° 0.1 mm 3 mps 734 mmHg 88%
    01:00 +17°C° 0.1 mm 3 mps 734 mmHg 88%
    02:00 +17°C° 0.1 mm 3 mps 734 mmHg 88%
    03:00 +17°C° 0.1 mm 3 mps 734 mmHg 87%
    04:00 +17°C° 0.1 mm 3 mps 734 mmHg 87%
    05:00 +18°C° 0.1 mm 3 mps 734 mmHg 84%
    06:00 +19°C° 0.1 mm 4 mps 734 mmHg 81%
    07:00 +20°C° 0.1 mm 4 mps 734 mmHg 78%
    08:00 +21°C° 0.2 mm 4 mps 734 mmHg 73%
    09:00 +23°C° 0.2 mm 5 mps 734 mmHg 69%
    10:00 +25°C° 0.2 mm 5 mps 735 mmHg 64%
    11:00 +25°C° 0.5 mm 5 mps 734 mmHg 64%
    12:00 +26°C° 0.5 mm 5 mps 734 mmHg 65%
    13:00 +26°C° 0.5 mm 5 mps 734 mmHg 66%
    14:00 +26°C° 0.6 mm 5 mps 734 mmHg 68%
    15:00 +26°C° 0.6 mm 4 mps 734 mmHg 70%
    16:00 +25°C° 0.6 mm 4 mps 734 mmHg 72%
    17:00 +23°C° 0.5 mm 4 mps 734 mmHg 76%
    18:00 +22°C° 0.5 mm 3 mps 734 mmHg 81%
    19:00 +21°C° 0.5 mm 3 mps 734 mmHg 85%
    20:00 +20°C° 0.1 mm 3 mps 735 mmHg 87%
    21:00 +19°C° 0.1 mm 3 mps 735 mmHg 88%
    22:00 +19°C° 0.1 mm 2 mps 735 mmHg 89%
    23:00 +18°C° 0.1 mm 2 mps 735 mmHg 89%

    19 July, Thursday

    Time Temperature Precipitation Wind Pressure Humidity
    00:00 +18°C° 0.1 mm 2 mps 735 mmHg 90%
    01:00 +18°C° 0.1 mm 2 mps 735 mmHg 90%
    02:00 +18°C° 0 mm 2 mps 735 mmHg 91%
    03:00 +17°C° 0 mm 2 mps 735 mmHg 92%
    04:00 +17°C° 0 mm 2 mps 735 mmHg 93%
    05:00 +18°C° 0 mm 2 mps 735 mmHg 89%
    06:00 +19°C° 0 mm 3 mps 735 mmHg 86%
    07:00 +20°C° 0 mm 3 mps 735 mmHg 83%
    08:00 +21°C° 0 mm 3 mps 735 mmHg 75%
    09:00 +23°C° 0 mm 4 mps 735 mmHg 66%
    10:00 +25°C° 0 mm 4 mps 735 mmHg 58%
    11:00 +26°C° 0 mm 4 mps 735 mmHg 55%
    12:00 +27°C° 0 mm 4 mps 735 mmHg 51%
    13:00 +28°C° 0 mm 4 mps 735 mmHg 47%
    14:00 +28°C° 0 mm 4 mps 735 mmHg 48%
    15:00 +28°C° 0 mm 3 mps 735 mmHg 49%
    16:00 +28°C° 0 mm 3 mps 735 mmHg 49%
    17:00 +26°C° 0 mm 3 mps 735 mmHg 57%
    18:00 +25°C° 0 mm 2 mps 735 mmHg 65%
    19:00 +23°C° 0 mm 1 mps 735 mmHg 73%
    20:00 +22°C° 0 mm 1 mps 735 mmHg 76%
    21:00 +21°C° 0 mm 1 mps 735 mmHg 79%
    22:00 +19°C° 0 mm 1 mps 735 mmHg 82%
    23:00 +19°C° 0 mm 1 mps 735 mmHg 83%

    20 July, Friday

    Time Temperature Precipitation Wind Pressure Humidity
    00:00 +18°C° 0 mm 1 mps 735 mmHg 85%
    01:00 +18°C° 0 mm 1 mps 735 mmHg 86%
    02:00 +16°C° 0 mm 1 mps 735 mmHg 87%
    03:00 +16°C° 0 mm 1 mps 735 mmHg 88%
    04:00 +16°C° 0 mm 1 mps 735 mmHg 89%
    05:00 +18°C° 0 mm 1 mps 735 mmHg 83%
    06:00 +20°C° 0 mm 1 mps 735 mmHg 77%
    07:00 +20°C° 0 mm 0 mps 735 mmHg 71%
    08:00 +24°C° 0 mm 1 mps 735 mmHg 63%
    09:00 +26°C° 0 mm 1 mps 735 mmHg 56%
    10:00 +27°C° 0 mm 1 mps 735 mmHg 49%
    11:00 +28°C° 0 mm 1 mps 734 mmHg 47%
    12:00 +29°C° 0 mm 2 mps 734 mmHg 44%
    13:00 +29°C° 0 mm 2 mps 733 mmHg 42%
    14:00 +29°C° 0 mm 2 mps 733 mmHg 44%
    15:00 +29°C° 0 mm 2 mps 733 mmHg 46%
    16:00 +29°C° 0 mm 2 mps 733 mmHg 48%
    17:00 +27°C° 0.2 mm 2 mps 732 mmHg 57%
    18:00 +25°C° 0.2 mm 2 mps 732 mmHg 66%
    19:00 +24°C° 0.2 mm 1 mps 732 mmHg 76%
    20:00 +23°C° 0.9 mm 1 mps 732 mmHg 79%
    21:00 +22°C° 0.9 mm 1 mps 732 mmHg 82%
    22:00 +21°C° 0.9 mm 1 mps 732 mmHg 85%
    23:00 +20°C° 0.5 mm 1 mps 732 mmHg 86%

    21 July, Saturday

    Time Temperature Precipitation Wind Pressure Humidity
    00:00 +20°C° 0.5 mm 1 mps 732 mmHg 88%
    01:00 +20°C° 0.5 mm 1 mps 732 mmHg 89%
    02:00 +19°C° 0.2 mm 1 mps 732 mmHg 90%
    03:00 +19°C° 0.2 mm 1 mps 732 mmHg 90%
    04:00 +16°C° 0.2 mm 0 mps 732 mmHg 91%
    05:00 +19°C° 0.4 mm 1 mps 732 mmHg 90%
    06:00 +20°C° 0.4 mm 1 mps 732 mmHg 89%
    07:00 +21°C° 0.4 mm 1 mps 732 mmHg 88%
    08:00 +22°C° 0.4 mm 1 mps 732 mmHg 86%
    09:00 +22°C° 0.4 mm 1 mps 732 mmHg 84%
    10:00 +23°C° 0.4 mm 1 mps 732 mmHg 81%
    11:00 +23°C° 0.6 mm 1 mps 732 mmHg 82%
    12:00 +23°C° 0.6 mm 1 mps 732 mmHg 83%
    13:00 +23°C° 0.6 mm 1 mps 731 mmHg 84%
    14:00 +23°C° 0.8 mm 1 mps 731 mmHg 84%
    15:00 +23°C° 0.8 mm 1 mps 731 mmHg 84%
    16:00 +23°C° 0.8 mm 1 mps 731 mmHg 84%
    17:00 +21°C° 0.6 mm 2 mps 731 mmHg 87%
    18:00 +20°C° 0.6 mm 2 mps 731 mmHg 90%
    19:00 +20°C° 0.6 mm 2 mps 731 mmHg 93%
    20:00 +19°C° 0.1 mm 2 mps 731 mmHg 94%
    21:00 +19°C° 0.1 mm 2 mps 732 mmHg 95%
    22:00 +18°C° 0.1 mm 2 mps 732 mmHg 95%
    23:00 +18°C° 0.8 mm 2 mps 732 mmHg 96%
    Show more